This is the latest recevied weather packets stored in our database for station/object DB0MW-13. If no packets are shown the sender has not sent any weather packets the latest 10 day(s).
| Time | Temp. | Humidity | Pressure | Rain* | Wind** | Luminosity | Snow |
|---|---|---|---|---|---|---|---|
| 1777489501 | 15.56° C | 35% | 1025.7 hPa | 0 mm | - | - | - |
| 1777489201 | 15.56° C | 35% | 1025.5 hPa | 0 mm | - | - | - |
| 1777488901 | 15.56° C | 35% | 1025.2 hPa | 0 mm | - | - | - |
| 1777488601 | 16.11° C | 35% | 1025.2 hPa | 0 mm | - | - | - |
| 1777488301 | 16.11° C | 36% | 1025 hPa | 0 mm | - | - | - |
| 1777488000 | 16.11° C | 36% | 1025.1 hPa | 0 mm | - | - | - |
| 1777487700 | 16.67° C | 35% | 1024.9 hPa | 0 mm | - | - | - |
| 1777487400 | 16.67° C | 35% | 1025 hPa | 0 mm | - | - | - |
| 1777487101 | 16.67° C | 35% | 1024.9 hPa | 0 mm | - | - | - |
| 1777486801 | 16.67° C | 35% | 1024.8 hPa | 0 mm | - | - | - |
| 1777486501 | 17.22° C | 35% | 1024.7 hPa | 0 mm | - | - | - |
| 1777486201 | 17.22° C | 35% | 1024.6 hPa | 0 mm | - | - | - |
| 1777485901 | 17.22° C | 35% | 1024.6 hPa | 0 mm | - | - | - |
| 1777485601 | 17.78° C | 34% | 1024.4 hPa | 0 mm | - | - | - |
| 1777485301 | 17.78° C | 34% | 1024.5 hPa | 0 mm | - | - | - |
| 1777485001 | 17.78° C | 33% | 1024.4 hPa | 0 mm | - | - | - |
| 1777484701 | 17.78° C | 33% | 1024.3 hPa | 0 mm | - | - | - |
| 1777484401 | 18.33° C | 33% | 1024.5 hPa | 0 mm | - | - | - |
| 1777483801 | 18.33° C | 33% | 1024.2 hPa | 0 mm | - | - | - |
| 1777483501 | 18.33° C | 33% | 1024.1 hPa | 0 mm | - | - | - |
| 1777483201 | 18.89° C | 32% | 1024 hPa | 0 mm | - | - | - |
| 1777482901 | 18.89° C | 32% | 1024.1 hPa | 0 mm | - | - | - |
| 1777482600 | 19.44° C | 32% | 1024.2 hPa | 0 mm | - | - | - |
| 1777482301 | 19.44° C | 32% | 1024 hPa | 0 mm | - | - | - |
| 1777482001 | 20° C | 31% | 1024.1 hPa | 0 mm | - | - | - |
* Rain latest hour (hover to see other rain measurements)
** Current wind speed in m/s (hover to see current wind gust speed)